Regional Weather Roundup
Issued by NWS

Home | Current Version | Previous Version | Text Only | Print | Product List | Glossary On
Versions: 1 2 3 4 5 6 7 8 9 10 11 12 13 14 15 16 17 18 19 20 21 22 23 24 25 26 27 28 29 30 31 32 33 34 35 36 37 38 39 40 41 42 43 44 45 46 47 48 49 50
000
ASUS45 KREV 301410
RWRNV
NEVADA REGIONAL WEATHER ROUNDUP
NATIONAL WEATHER SERVICE RENO NV
700 AM PDT SAT MAY 30 2015

NOTE: "FAIR" INDICATES FEW OR NO CLOUDS BELOW 12,000 FEET WITH NO
SIGNIFICANT WEATHER AND/OR OBSTRUCTIONS TO VISIBILITY.

NVZ001-003-004-301500-
WESTERN NEVADA

CITY           SKY/WX    TMP DP  RH WIND       PRES   REMARKS
RENO           PTSUNNY   58  39  49 CALM      30.07R
CARSON CITY    FAIR      55  37  50 CALM      30.09R
MINDEN         FAIR      48  34  57 CALM      30.09
SLIDE MTN        N/A     48  19  32 W31         N/A
PYRAMID LAKE     N/A     66 N/A N/A SW6         N/A
FALLON         NOT AVBL
LOVELOCK       PTSUNNY   61  46  57 CALM      30.02R
HAWTHORNE      SUNNY     66  45  45 CALM      30.05R
$$

NVZ002-CAZ072-073-301500-
NORTHERN AND CENTRAL SIERRA

CITY           SKY/WX    TMP DP  RH WIND       PRES   REMARKS
S. LAKE TAHOE  MOSUNNY   47  38  71 CALM      30.16S
TRUCKEE        MOSUNNY   46  37  71 CALM      30.16S
SQUAW VLY 8000   N/A     54  25  32 SW13        N/A
SUSANVILLE     SUNNY     54  36  50 W3        30.06
BLUE CANYON    SUNNY     60  30  32 SE3       30.12S
MAMMOTH LAKES  FAIR      45  28  53 CALM      30.23S
BRIDGEPORT     FAIR      41  30  65 CALM      30.20R
$$

NVZ030-031-036-301500-
NORTHERN NEVADA

CITY           SKY/WX    TMP DP  RH WIND       PRES   REMARKS
ELKO           MOSUNNY   60  46  59 NE3       30.09S
WINNEMUCCA     NOT AVBL
WENDOVER       MOSUNNY   61  46  59 CALM      30.10S
$$

NVZ035-037-301500-
CENTRAL NEVADA

CITY           SKY/WX    TMP DP  RH WIND       PRES   REMARKS
ELY            CLOUDY    59  38  45 S14       30.19R
EUREKA           N/A     57  41  55 SW5       30.13S
$$

NVZ013-014-301500-
SOUTH CENTRAL NEVADA

CITY           SKY/WX    TMP DP  RH WIND       PRES   REMARKS
TONOPAH        MOSUNNY   61  28  28 N8        30.13S
$$

NVZ017-020-022-301500-
SOUTHERN NEVADA

CITY           SKY/WX    TMP DP  RH WIND       PRES   REMARKS
LAS VEGAS      MOSUNNY   78  27  15 S9        29.93R
N. LAS VEGAS   SUNNY     79  23  12 NE3       29.96R
NELLIS AFB     SUNNY     80  32  17 NE8       29.94R
HENDERSON      SUNNY     75  34  22 S5        30.00R
MERCURY        NOT AVBL
$$


USA.gov is the U.S. government's official web portal to all federal, state and local government web resources and services.